Valdosta, GA

8:57 AM EDT on May 25, 2017 (GMT -0400)
Moody Air Force Base

Weather History for KVAD - December, 2013

Change the Weather History Date:

Monday, December 2, 2013

  Actual Average Record
Temperature  
Mean Temperature 59 °F -  
Max Temperature 68 °F 65 °F 78 °F (2012)
Min Temperature 48 °F 45 °F 28 °F (1999)
Degree Days  
Heating Degree Days 6    
Growing Degree Days 9 (Base 50)    
Moisture  
Dew Point 51 °F    
Average Humidity 83    
Maximum Humidity 100    
Minimum Humidity 48    
Precipitation  
Precipitation 0.00 in - - ()
Sea Level Pressure  
Sea Level Pressure 29.92 in    
Wind  
Wind Speed 3 mph (NNE)    
Max Wind Speed 7 mph    
Max Gust Speed -    
Visibility 10 miles    
Events      
Averages and records for this station are not official NWS values.
T = Trace of Precipitation, MM = Missing Value Source: NWS Daily Summary

Daily Weather History Graph

Daily Weather History Graph

Search for Another Location

Airport or City:

Trip Planner

Search our weather history database for the weather conditions in past years. The results will help you decide how hot, cold, wet, or windy it might be!

Date:

Astronomy

Dec. 02, 2013 Rise Set
Actual Time 7:14 AM EST 5:30 PM EST
Civil Twilight 6:47 AM EST 5:56 PM EST
Nautical Twilight 6:17 AM EST 6:26 PM EST
Astronomical Twilight 5:48 AM EST 6:55 PM EST
Moon 6:40 AM EST (12/2) 5:30 PM EST (12/2)
Length of Visible Light 11h 08m
Length of Day
10h 16m
Waning Crescent, 0% of the Moon is Illuminated
Dec 2
Waning Crescent
Dec 2
New
Dec 9
First Quarter
Dec 17
Full
Dec 25
Last Quarter

Hourly Weather History & Observations

Time (EST) Temp. Dew Point Humidity Pressure Visibility Wind Dir Wind Speed Gust Speed Precip Events Conditions
12:58 AM 53.6 °F 53.1 °F 98% 30.02 in 10.0 mi NNW 2.3 mph - N/A   Overcast
1:58 AM 53.2 °F 52.9 °F 99% 30.01 in 10.0 mi NNW 1.2 mph - N/A   Overcast
2:58 AM 52.3 °F 52.0 °F 99% 29.99 in 10.0 mi NNW 5.8 mph - N/A   Partly Cloudy
3:58 AM 52.7 °F 52.5 °F 99% 29.98 in 10.0 mi North 3.5 mph - N/A   Overcast
4:58 AM 52.0 °F 51.6 °F 99% 29.96 in 10.0 mi ENE 1.2 mph - N/A   Clear
5:58 AM 51.3 °F 50.9 °F 99% 29.97 in 10.0 mi NNW 3.5 mph - N/A   Scattered Clouds
6:58 AM 51.1 °F 50.7 °F 99% 29.98 in 10.0 mi Calm Calm - N/A   Scattered Clouds
7:10 AM 50.0 °F 50.0 °F 100% 29.95 in 9.0 mi SSE 2.3 mph - N/A   Clear
7:14 AM 50.0 °F 50.0 °F 100% 29.95 in 9.0 mi SSE 3.5 mph - N/A   Clear
7:58 AM - - N/A% 29.95 in 10.0 mi North 3.5 mph - N/A   Mostly Cloudy
8:04 AM 53.6 °F 50.0 °F 88% 29.96 in 10.0 mi Variable 1.2 mph - N/A   Mostly Cloudy
8:58 AM 52.3 °F 52.2 °F 99% 29.95 in 10.0 mi South 4.6 mph - N/A   Overcast
9:58 AM 57.6 °F 54.3 °F 89% 29.97 in 10.0 mi WNW 4.6 mph - N/A   Mostly Cloudy
10:58 AM 62.2 °F 52.3 °F 70% 29.95 in 10.0 mi NW 6.9 mph - N/A   Clear
11:58 AM - - N/A% - 10.0 mi NW 5.8 mph - N/A   Scattered Clouds
12:18 PM 66.2 °F 51.8 °F 60% 29.90 in 10.0 mi Variable 5.8 mph - N/A   Scattered Clouds
12:58 PM - - N/A% 29.87 in 10.0 mi North 3.5 mph - N/A   Scattered Clouds
1:58 PM - - N/A% - 10.0 mi Variable 4.6 mph - N/A   Clear
1:59 PM 66.2 °F 51.8 °F 60% 29.88 in 10.0 mi North 4.6 mph - N/A   Clear
2:58 PM 67.8 °F 48.2 °F 49% 29.85 in 10.0 mi Variable 3.5 mph - N/A   Clear
2:59 PM 68.0 °F 48.2 °F 49% 29.85 in 10.0 mi Variable 3.5 mph - N/A   Clear
3:58 PM 68.7 °F 48.4 °F 48% 29.84 in 10.0 mi Calm Calm - N/A   Clear
3:59 PM 68.0 °F 48.2 °F 49% 29.84 in 10.0 mi Calm Calm - N/A   Clear
4:58 PM 67.3 °F 48.4 °F 51% 29.84 in 10.0 mi South 4.6 mph - N/A   Clear
5:58 PM 59.7 °F 50.7 °F 72% 29.85 in 10.0 mi East 1.2 mph - N/A   Clear
6:58 PM 54.7 °F 50.5 °F 86% 29.87 in 10.0 mi ENE 2.3 mph - N/A   Clear
7:58 PM 54.0 °F 50.4 °F 88% 29.87 in 10.0 mi Calm Calm - N/A   Clear
8:58 PM 51.4 °F 49.3 °F 92% 29.89 in 10.0 mi South 1.2 mph - N/A   Partly Cloudy
9:58 PM 50.9 °F 49.8 °F 96% 29.90 in 10.0 mi SSE 2.3 mph - N/A   Clear
10:58 PM 51.1 °F 50.7 °F 99% 29.90 in 10.0 mi Calm Calm - N/A   Clear
11:58 PM 48.0 °F 47.8 °F 99% 29.89 in 10.0 mi ESE 2.3 mph - N/A   Clear